When you browse on this site, cookies collect data to enhance your experience and personalize the content and advertising you see.
Visit our Privacy Policy to learn more. By continuing to use the site, you agree to this use of cookies and data.
  • In Österreich
  • Länderverzeichnis
  • Für 7 Tage
  • Wassertemperatur
  • Wetterkarte
  • News
  • Widgets
  • user-avatar
    Anmelden

    Stündliche Wetter Vetchin

    Heute, 27 Januar, Montag

    Zeit Temperatur Niederschläge Wind Luftdruck Luftfeuchtigkeit
    00:00 -2°C° 0 mm 2 m/S 750 mmHg 90%
    01:00 -2°C° 0 mm 2 m/S 750 mmHg 90%
    02:00 +1°C° 0 mm 1 m/S 750 mmHg 91%
    03:00 0°C° 0 mm 1 m/S 749 mmHg 91%
    04:00 0°C° 0 mm 1 m/S 749 mmHg 91%
    05:00 0°C° 0 mm 1 m/S 749 mmHg 91%
    06:00 0°C° 0 mm 1 m/S 749 mmHg 89%
    07:00 +1°C° 0 mm 1 m/S 749 mmHg 87%
    08:00 -1°C° 0 mm 2 m/S 749 mmHg 80%
    09:00 -1°C° 0.1 mm 2 m/S 749 mmHg 79%
    10:00 +1°C° 0.1 mm 2 m/S 749 mmHg 78%
    11:00 +2°C° 0.1 mm 1 m/S 748 mmHg 77%
    12:00 +1°C° 0.1 mm 2 m/S 748 mmHg 81%
    13:00 +1°C° 0.1 mm 2 m/S 748 mmHg 85%
    14:00 -1°C° 0.1 mm 2 m/S 747 mmHg 89%
    15:00 -1°C° 0 mm 2 m/S 747 mmHg 88%
    16:00 -1°C° 0 mm 2 m/S 747 mmHg 86%
    17:00 +1°C° 0 mm 2 m/S 747 mmHg 85%
    18:00 -1°C° 0 mm 2 m/S 747 mmHg 86%
    19:00 -1°C° 0 mm 2 m/S 747 mmHg 87%
    20:00 -2°C° 0 mm 2 m/S 747 mmHg 88%
    21:00 -2°C° 0 mm 2 m/S 746 mmHg 88%
    22:00 -2°C° 0 mm 2 m/S 746 mmHg 88%
    23:00 -2°C° 0 mm 2 m/S 746 mmHg 88%

    Morgen, 28 Januar, Dienstag

    Zeit Temperatur Niederschläge Wind Luftdruck Luftfeuchtigkeit
    00:00 -2°C° 0 mm 2 m/S 746 mmHg 87%
    01:00 -2°C° 0 mm 2 m/S 746 mmHg 86%
    02:00 -2°C° 0 mm 2 m/S 745 mmHg 86%
    03:00 -2°C° 0 mm 2 m/S 745 mmHg 85%
    04:00 -2°C° 0 mm 2 m/S 745 mmHg 84%
    05:00 -2°C° 0 mm 2 m/S 745 mmHg 83%
    06:00 -2°C° 0 mm 2 m/S 745 mmHg 82%
    07:00 -1°C° 0 mm 2 m/S 745 mmHg 81%
    08:00 -1°C° 0 mm 2 m/S 744 mmHg 81%
    09:00 +1°C° 0 mm 2 m/S 744 mmHg 79%
    10:00 +1°C° 0 mm 2 m/S 744 mmHg 77%
    11:00 +2°C° 0 mm 2 m/S 744 mmHg 75%
    12:00 +2°C° 0 mm 2 m/S 743 mmHg 74%
    13:00 +3°C° 0 mm 2 m/S 743 mmHg 73%
    14:00 +3°C° 0 mm 2 m/S 743 mmHg 72%
    15:00 +2°C° 0 mm 2 m/S 742 mmHg 77%
    16:00 0°C° 0 mm 3 m/S 742 mmHg 82%
    17:00 0°C° 0 mm 3 m/S 741 mmHg 88%
    18:00 -1°C° 0 mm 3 m/S 741 mmHg 88%
    19:00 -1°C° 0 mm 3 m/S 741 mmHg 88%
    20:00 -1°C° 0 mm 3 m/S 741 mmHg 88%
    21:00 -1°C° 0 mm 3 m/S 740 mmHg 88%
    22:00 -1°C° 0 mm 3 m/S 740 mmHg 88%
    23:00 -1°C° 0 mm 3 m/S 739 mmHg 88%

    übermorgen, 29 Januar, Mittwoch

    Zeit Temperatur Niederschläge Wind Luftdruck Luftfeuchtigkeit
    00:00 -1°C° 0 mm 3 m/S 739 mmHg 89%
    01:00 -2°C° 0 mm 4 m/S 738 mmHg 90%
    02:00 -2°C° 0 mm 4 m/S 738 mmHg 92%
    03:00 -2°C° 0 mm 4 m/S 737 mmHg 92%
    04:00 -2°C° 0 mm 4 m/S 736 mmHg 93%
    05:00 -2°C° 0 mm 4 m/S 736 mmHg 94%
    06:00 -1°C° 0.6 mm 4 m/S 735 mmHg 95%
    07:00 -1°C° 0.6 mm 4 m/S 735 mmHg 96%
    08:00 0°C° 0.6 mm 4 m/S 735 mmHg 97%
    09:00 +1°C° 1.2 mm 3 m/S 734 mmHg 97%
    10:00 +1°C° 1.2 mm 3 m/S 734 mmHg 98%
    11:00 +1°C° 1.2 mm 3 m/S 734 mmHg 98%
    12:00 +2°C° 1 mm 2 m/S 733 mmHg 98%
    13:00 +2°C° 1 mm 2 m/S 733 mmHg 98%
    14:00 +2°C° 1 mm 2 m/S 733 mmHg 98%
    15:00 +3°C° 1.2 mm 1 m/S 733 mmHg 98%
    16:00 +2°C° 1.2 mm 1 m/S 733 mmHg 98%
    17:00 +2°C° 1.2 mm 1 m/S 733 mmHg 99%
    18:00 +2°C° 0.6 mm 1 m/S 733 mmHg 98%
    19:00 +1°C° 0.6 mm 2 m/S 733 mmHg 98%
    20:00 +1°C° 0.6 mm 2 m/S 733 mmHg 98%
    21:00 0°C° 0.4 mm 3 m/S 733 mmHg 98%
    22:00 -1°C° 0.4 mm 4 m/S 733 mmHg 97%
    23:00 -1°C° 0.4 mm 5 m/S 732 mmHg 97%

    30 Januar, Donnerstag

    Zeit Temperatur Niederschläge Wind Luftdruck Luftfeuchtigkeit
    00:00 -1°C° 0.7 mm 5 m/S 732 mmHg 97%
    01:00 -2°C° 0.7 mm 6 m/S 732 mmHg 96%
    02:00 -2°C° 0.7 mm 6 m/S 732 mmHg 96%
    03:00 -2°C° 1 mm 7 m/S 733 mmHg 96%
    04:00 -2°C° 1 mm 7 m/S 733 mmHg 96%
    05:00 -2°C° 1 mm 7 m/S 733 mmHg 96%
    06:00 -2°C° 0.9 mm 7 m/S 733 mmHg 96%
    07:00 -2°C° 0.9 mm 8 m/S 734 mmHg 96%
    08:00 -2°C° 0.9 mm 8 m/S 734 mmHg 96%
    09:00 -2°C° 0.7 mm 8 m/S 734 mmHg 96%
    10:00 -2°C° 0.7 mm 8 m/S 735 mmHg 96%
    11:00 -2°C° 0.7 mm 8 m/S 735 mmHg 96%
    12:00 -2°C° 0.4 mm 7 m/S 736 mmHg 95%
    13:00 -2°C° 0.4 mm 7 m/S 736 mmHg 95%
    14:00 -1°C° 0.4 mm 7 m/S 737 mmHg 94%
    15:00 -1°C° 0.1 mm 7 m/S 737 mmHg 92%
    16:00 -1°C° 0.1 mm 6 m/S 737 mmHg 89%
    17:00 -1°C° 0.1 mm 6 m/S 738 mmHg 87%
    18:00 0°C° 0 mm 5 m/S 738 mmHg 88%
    19:00 0°C° 0 mm 5 m/S 738 mmHg 89%
    20:00 0°C° 0 mm 5 m/S 739 mmHg 90%
    21:00 -1°C° 0 mm 5 m/S 739 mmHg 92%
    22:00 -1°C° 0 mm 5 m/S 739 mmHg 93%
    23:00 -2°C° 0 mm 6 m/S 739 mmHg 95%

    31 Januar, Freitag

    Zeit Temperatur Niederschläge Wind Luftdruck Luftfeuchtigkeit
    00:00 -1°C° 0.1 mm 5 m/S 739 mmHg 92%
    01:00 -1°C° 0.1 mm 5 m/S 739 mmHg 90%
    02:00 -2°C° 0.1 mm 5 m/S 739 mmHg 88%
    03:00 -2°C° 0 mm 4 m/S 739 mmHg 90%
    04:00 -3°C° 0 mm 4 m/S 739 mmHg 91%
    05:00 -4°C° 0 mm 3 m/S 739 mmHg 93%
    06:00 -2°C° 0.1 mm 3 m/S 738 mmHg 94%
    07:00 -2°C° 0.1 mm 2 m/S 738 mmHg 96%
    08:00 -1°C° 0.1 mm 2 m/S 737 mmHg 97%
    09:00 -1°C° 0.1 mm 2 m/S 737 mmHg 97%
    10:00 -1°C° 0.1 mm 2 m/S 737 mmHg 97%
    11:00 +2°C° 0.1 mm 1 m/S 737 mmHg 97%
    12:00 +2°C° 0.1 mm 1 m/S 736 mmHg 97%
    13:00 +2°C° 0.1 mm 1 m/S 736 mmHg 98%
    14:00 +3°C° 0.1 mm 1 m/S 736 mmHg 98%
    15:00 +3°C° 0.1 mm 1 m/S 736 mmHg 98%
    16:00 +3°C° 0.1 mm 1 m/S 736 mmHg 98%
    17:00 +3°C° 0.1 mm 1 m/S 736 mmHg 98%
    18:00 +2°C° 0.2 mm 1 m/S 736 mmHg 98%
    19:00 +2°C° 0.2 mm 1 m/S 736 mmHg 98%
    20:00 +1°C° 0.2 mm 2 m/S 737 mmHg 98%
    21:00 +1°C° 0.6 mm 2 m/S 737 mmHg 98%
    22:00 +1°C° 0.6 mm 2 m/S 737 mmHg 98%
    23:00 -1°C° 0.6 mm 2 m/S 738 mmHg 98%

    1 Februar, Samstag

    Zeit Temperatur Niederschläge Wind Luftdruck Luftfeuchtigkeit
    00:00 -1°C° 0.1 mm 2 m/S 739 mmHg 97%
    01:00 -1°C° 0.1 mm 2 m/S 739 mmHg 96%
    02:00 -1°C° 0.1 mm 2 m/S 740 mmHg 96%
    03:00 -2°C° 0 mm 2 m/S 741 mmHg 95%
    04:00 -2°C° 0 mm 2 m/S 741 mmHg 95%
    05:00 -1°C° 0 mm 1 m/S 742 mmHg 94%
    06:00 -1°C° 0 mm 1 m/S 742 mmHg 94%
    07:00 -1°C° 0 mm 1 m/S 743 mmHg 94%
    08:00 -1°C° 0 mm 1 m/S 743 mmHg 94%
    09:00 0°C° 0 mm 1 m/S 744 mmHg 91%
    10:00 0°C° 0 mm 1 m/S 744 mmHg 88%
    11:00 +1°C° 0 mm 1 m/S 744 mmHg 85%
    12:00 +1°C° 0 mm 2 m/S 744 mmHg 84%
    13:00 +1°C° 0 mm 2 m/S 744 mmHg 82%
    14:00 +1°C° 0 mm 3 m/S 744 mmHg 81%
    15:00 +1°C° 0 mm 3 m/S 744 mmHg 85%
    16:00 0°C° 0 mm 3 m/S 744 mmHg 88%
    17:00 0°C° 0 mm 3 m/S 744 mmHg 92%
    18:00 0°C° 0 mm 3 m/S 744 mmHg 93%
    19:00 +1°C° 0 mm 3 m/S 744 mmHg 95%
    20:00 +1°C° 0 mm 3 m/S 744 mmHg 96%
    21:00 +1°C° 0 mm 3 m/S 744 mmHg 96%
    22:00 +1°C° 0 mm 3 m/S 744 mmHg 96%
    23:00 +2°C° 0 mm 3 m/S 743 mmHg 96%
    Mehr zeigen